Time,TemperatureF,DewpointF,PressureIn,WindDirection,WindDirectionDegrees,WindSpeedMPH,WindSpeedGustMPH,Humidity,HourlyPrecipIn,Conditions,Clouds,dailyrainin,SoftwareType,DateUTC
2013-03-06 00:00:00,35.5,22.2,30.34,NNW,340,2.0,2.0,58,0.00,,,0.04,Wunderground v.1.15,2013-03-06 06:00:00,
2013-03-06 00:06:00,35.4,22.5,30.35,NNW,342,3.0,4.0,59,0.00,,,0.00,Wunderground v.1.15,2013-03-06 06:06:00,
2013-03-06 00:12:00,35.3,22.4,30.35,NNW,344,3.0,3.0,59,0.00,,,0.00,Wunderground v.1.15,2013-03-06 06:12:00,
2013-03-06 00:20:00,35.1,22.2,30.35,NNW,344,2.0,2.0,59,0.00,,,0.00,Wunderground v.1.15,2013-03-06 06:20:00,
2013-03-06 00:30:00,34.9,22.4,30.36,North,350,3.0,3.0,60,0.00,,,0.00,Wunderground v.1.15,2013-03-06 06:30:00,
2013-03-06 00:36:00,34.8,22.3,30.36,NNW,346,2.0,3.0,60,0.00,,,0.00,Wunderground v.1.15,2013-03-06 06:36:00,
2013-03-06 00:42:00,34.6,22.1,30.36,North,355,2.0,2.0,60,0.00,,,0.00,Wunderground v.1.15,2013-03-06 06:42:00,
2013-03-06 00:49:00,34.4,21.9,30.36,North,355,2.0,6.0,60,0.00,,,0.00,Wunderground v.1.15,2013-03-06 06:49:00,
2013-03-06 00:54:00,34.4,21.9,30.36,North,350,3.0,4.0,60,0.00,,,0.00,Wunderground v.1.15,2013-03-06 06:54:00,
2013-03-06 01:00:00,34.3,21.8,30.36,NNW,335,3.0,6.0,60,0.00,,,0.00,Wunderground v.1.15,2013-03-06 07:00:00,
2013-03-06 01:06:00,34.2,21.7,30.36,NNE,20,2.0,6.0,60,0.00,,,0.00,Wunderground v.1.15,2013-03-06 07:06:00,
2013-03-06 01:12:00,34.1,21.7,30.36,North,355,3.0,4.0,60,0.00,,,0.00,Wunderground v.1.15,2013-03-06 07:12:00,
2013-03-06 01:19:00,33.9,21.5,30.37,North,355,3.0,4.0,60,0.00,,,0.00,Wunderground v.1.15,2013-03-06 07:19:00,
2013-03-06 01:24:00,33.8,21.8,30.37,NNW,346,2.0,4.0,61,0.00,,,0.00,Wunderground v.1.15,2013-03-06 07:24:00,
2013-03-06 01:30:00,33.6,21.6,30.37,NNE,17,2.0,3.0,61,0.00,,,0.00,Wunderground v.1.15,2013-03-06 07:30:00,
2013-03-06 01:36:00,33.5,21.5,30.37,North,9,2.0,3.0,61,0.00,,,0.00,Wunderground v.1.15,2013-03-06 07:36:00,
2013-03-06 01:42:00,33.4,21.4,30.37,NNE,15,2.0,3.0,61,0.00,,,0.00,Wunderground v.1.15,2013-03-06 07:42:00,
2013-03-06 01:49:00,33.2,21.2,30.37,NNE,16,3.0,7.0,61,0.00,,,0.00,Wunderground v.1.15,2013-03-06 07:49:00,
2013-03-06 01:54:00,33.2,21.2,30.37,North,11,3.0,3.0,61,0.00,,,0.00,Wunderground v.1.15,2013-03-06 07:54:00,
2013-03-06 02:00:00,33.0,21.4,30.38,North,349,2.0,3.0,62,0.00,,,0.00,Wunderground v.1.15,2013-03-06 08:00:00,
2013-03-06 02:10:00,32.6,21.0,30.37,North,9,3.0,4.0,62,0.00,,,0.00,Wunderground v.1.15,2013-03-06 08:10:00,
2013-03-06 02:16:00,32.4,20.8,30.38,NW,326,3.0,6.0,62,0.00,,,0.00,Wunderground v.1.15,2013-03-06 08:16:00,
2013-03-06 02:22:00,32.2,21.0,30.38,North,355,3.0,3.0,63,0.00,,,0.00,Wunderground v.1.15,2013-03-06 08:22:00,
2013-03-06 02:29:00,32.1,20.9,30.38,North,9,3.0,3.0,63,0.00,,,0.00,Wunderground v.1.15,2013-03-06 08:29:00,
2013-03-06 02:34:00,31.9,20.7,30.38,North,355,3.0,5.0,63,0.00,,,0.00,Wunderground v.1.15,2013-03-06 08:34:00,
2013-03-06 02:40:00,31.8,20.6,30.37,NNE,13,3.0,3.0,63,0.00,,,0.00,Wunderground v.1.15,2013-03-06 08:40:00,
2013-03-06 02:46:00,31.8,20.6,30.37,North,355,3.0,3.0,63,0.00,,,0.00,Wunderground v.1.15,2013-03-06 08:46:00,
2013-03-06 02:52:00,31.7,20.5,30.37,NNW,348,3.0,4.0,63,0.00,,,0.00,Wunderground v.1.15,2013-03-06 08:52:00,
2013-03-06 03:04:00,31.6,20.4,30.37,NNE,28,4.0,4.0,63,0.00,,,0.00,Wunderground v.1.15,2013-03-06 09:04:00,
2013-03-06 03:10:00,31.5,20.3,30.37,NNE,29,3.0,4.0,63,0.00,,,0.00,Wunderground v.1.15,2013-03-06 09:10:00,
2013-03-06 03:16:00,31.4,20.2,30.37,North,5,3.0,4.0,63,0.00,,,0.00,Wunderground v.1.15,2013-03-06 09:16:00,
2013-03-06 03:22:00,31.3,20.2,30.37,North,355,3.0,4.0,63,0.00,,,0.00,Wunderground v.1.15,2013-03-06 09:22:00,
2013-03-06 03:29:00,31.2,20.1,30.37,North,360,3.0,3.0,63,0.00,,,0.00,Wunderground v.1.15,2013-03-06 09:29:00,
2013-03-06 03:34:00,31.2,20.4,30.37,North,5,3.0,3.0,64,0.00,,,0.00,Wunderground v.1.15,2013-03-06 09:34:00,
2013-03-06 03:40:00,31.1,20.0,30.37,North,360,2.0,3.0,63,0.00,,,0.00,Wunderground v.1.15,2013-03-06 09:40:00,
2013-03-06 03:46:00,31.1,20.0,30.37,North,360,2.0,2.0,63,0.00,,,0.00,Wunderground v.1.15,2013-03-06 09:46:00,
2013-03-06 03:52:00,31.0,19.9,30.37,NNE,12,2.0,3.0,63,0.00,,,0.00,Wunderground v.1.15,2013-03-06 09:52:00,
2013-03-06 03:59:00,31.0,19.5,30.37,NNE,19,2.0,2.0,62,0.00,,,0.00,Wunderground v.1.15,2013-03-06 09:59:00,
2013-03-06 04:04:00,31.0,19.5,30.37,NE,34,2.0,4.0,62,0.00,,,0.00,Wunderground v.1.15,2013-03-06 10:04:00,
2013-03-06 04:10:00,30.9,19.4,30.37,NE,34,1.0,1.0,62,0.00,,,0.00,Wunderground v.1.15,2013-03-06 10:10:00,
2013-03-06 04:16:00,30.7,19.6,30.38,NNE,31,1.0,3.0,63,0.00,,,0.00,Wunderground v.1.15,2013-03-06 10:16:00,
2013-03-06 04:22:00,30.6,19.5,30.39,North,355,1.0,3.0,63,0.00,,,0.00,Wunderground v.1.15,2013-03-06 10:22:00,
2013-03-06 04:28:00,30.4,19.3,30.39,North,355,1.0,3.0,63,0.00,,,0.00,Wunderground v.1.15,2013-03-06 10:28:00,
2013-03-06 04:34:00,30.3,19.6,30.39,NNE,19,1.0,3.0,64,0.00,,,0.00,Wunderground v.1.15,2013-03-06 10:34:00,
2013-03-06 04:40:00,30.4,19.7,30.39,NNE,29,2.0,3.0,64,0.00,,,0.00,Wunderground v.1.15,2013-03-06 10:40:00,
2013-03-06 04:46:00,30.4,19.3,30.39,NNE,27,2.0,3.0,63,0.00,,,0.00,Wunderground v.1.15,2013-03-06 10:46:00,
2013-03-06 04:52:00,30.3,19.2,30.39,NNE,26,1.0,1.0,63,0.00,,,0.00,Wunderground v.1.15,2013-03-06 10:52:00,
2013-03-06 04:59:00,30.2,19.5,30.39,NNE,24,1.0,4.0,64,0.00,,,0.00,Wunderground v.1.15,2013-03-06 10:59:00,
2013-03-06 05:04:00,30.1,19.4,30.39,NNE,25,2.0,4.0,64,0.00,,,0.00,Wunderground v.1.15,2013-03-06 11:04:00,
2013-03-06 05:10:00,30.1,19.4,30.39,NNW,335,2.0,2.0,64,0.00,,,0.00,Wunderground v.1.15,2013-03-06 11:10:00,
2013-03-06 05:16:00,29.9,19.2,30.38,NNE,19,2.0,4.0,64,0.00,,,0.00,Wunderground v.1.15,2013-03-06 11:16:00,
2013-03-06 05:22:00,29.8,19.5,30.39,NNE,13,2.0,3.0,65,0.00,,,0.00,Wunderground v.1.15,2013-03-06 11:22:00,
2013-03-06 05:29:00,29.7,19.4,30.39,NNE,12,2.0,4.0,65,0.00,,,0.00,Wunderground v.1.15,2013-03-06 11:29:00,
2013-03-06 05:34:00,29.6,19.3,30.39,North,360,2.0,2.0,65,0.00,,,0.00,Wunderground v.1.15,2013-03-06 11:34:00,
2013-03-06 05:40:00,29.4,19.1,30.39,NNE,13,2.0,5.0,65,0.00,,,0.00,Wunderground v.1.15,2013-03-06 11:40:00,
2013-03-06 05:46:00,29.4,19.1,30.39,NNE,31,2.0,5.0,65,0.00,,,0.00,Wunderground v.1.15,2013-03-06 11:46:00,
2013-03-06 05:52:00,29.4,19.1,30.39,NNE,22,2.0,2.0,65,0.00,,,0.00,Wunderground v.1.15,2013-03-06 11:52:00,
2013-03-06 05:59:00,29.3,19.0,30.39,NE,36,2.0,3.0,65,0.00,,,0.00,Wunderground v.1.15,2013-03-06 11:59:00,
2013-03-06 06:04:00,29.3,19.0,30.40,North,360,2.0,2.0,65,0.00,,,0.00,Wunderground v.1.15,2013-03-06 12:04:00,
2013-03-06 06:10:00,29.1,19.2,30.39,North,355,2.0,2.0,66,0.00,,,0.00,Wunderground v.1.15,2013-03-06 12:10:00,
2013-03-06 06:16:00,29.0,19.1,30.39,NNE,22,2.0,3.0,66,0.00,,,0.00,Wunderground v.1.15,2013-03-06 12:16:00,
2013-03-06 06:22:00,29.0,19.1,30.39,NNE,32,2.0,2.0,66,0.00,,,0.00,Wunderground v.1.15,2013-03-06 12:22:00,
2013-03-06 06:28:00,28.9,19.0,30.39,NNE,22,2.0,3.0,66,0.00,,,0.00,Wunderground v.1.15,2013-03-06 12:28:00,
2013-03-06 06:34:00,28.8,19.2,30.39,NNE,25,2.0,5.0,67,0.00,,,0.00,Wunderground v.1.15,2013-03-06 12:34:00,
2013-03-06 06:40:00,28.7,19.1,30.39,NNE,33,2.0,2.0,67,0.00,,,0.00,Wunderground v.1.15,2013-03-06 12:40:00,
2013-03-06 06:46:00,28.6,19.0,30.39,North,355,2.0,4.0,67,0.00,,,0.00,Wunderground v.1.15,2013-03-06 12:46:00,
2013-03-06 06:52:00,28.5,19.3,30.40,NNE,23,3.0,3.0,68,0.00,,,0.00,Wunderground v.1.15,2013-03-06 12:52:00,
2013-03-06 06:59:00,28.3,18.7,30.40,North,9,3.0,3.0,67,0.00,,,0.00,Wunderground v.1.15,2013-03-06 12:59:00,
2013-03-06 07:04:00,28.2,19.0,30.40,North,5,2.0,4.0,68,0.00,,,0.00,Wunderground v.1.15,2013-03-06 13:04:00,
2013-03-06 07:10:00,28.1,18.9,30.40,North,360,2.0,2.0,68,0.00,,,0.00,Wunderground v.1.15,2013-03-06 13:10:00,
2013-03-06 07:16:00,28.1,18.9,30.40,North,360,1.0,3.0,68,0.00,,,0.00,Wunderground v.1.15,2013-03-06 13:16:00,
2013-03-06 07:22:00,28.3,19.1,30.40,NNE,13,1.0,2.0,68,0.00,,,0.00,Wunderground v.1.15,2013-03-06 13:22:00,
2013-03-06 07:34:00,28.9,19.3,30.41,ENE,60,2.0,2.0,67,0.00,,,0.00,Wunderground v.1.15,2013-03-06 13:34:00,
2013-03-06 07:40:00,29.3,19.3,30.41,NE,45,2.0,3.0,66,0.00,,,0.00,Wunderground v.1.15,2013-03-06 13:40:00,
2013-03-06 07:46:00,29.5,19.5,30.40,NE,46,2.0,2.0,66,0.00,,,0.00,Wunderground v.1.15,2013-03-06 13:46:00,
2013-03-06 07:52:00,29.6,19.3,30.40,ENE,58,4.0,10.0,65,0.00,,,0.00,Wunderground v.1.15,2013-03-06 13:52:00,
2013-03-06 07:58:00,29.8,19.8,30.40,ENE,71,4.0,9.0,66,0.00,,,0.00,Wunderground v.1.15,2013-03-06 13:58:00,
2013-03-06 08:04:00,30.0,19.7,30.40,NNE,32,4.0,7.0,65,0.00,,,0.00,Wunderground v.1.15,2013-03-06 14:04:00,
2013-03-06 08:10:00,30.1,19.7,30.40,ENE,60,4.0,4.0,65,0.00,,,0.00,Wunderground v.1.15,2013-03-06 14:10:00,
2013-03-06 08:16:00,30.5,19.8,30.40,ENE,57,4.0,6.0,64,0.00,,,0.00,Wunderground v.1.15,2013-03-06 14:16:00,
2013-03-06 08:22:00,30.6,20.2,30.40,NE,49,3.0,4.0,65,0.00,,,0.00,Wunderground v.1.15,2013-03-06 14:22:00,
2013-03-06 08:29:00,31.2,20.4,30.40,NE,53,2.0,4.0,64,0.00,,,0.00,Wunderground v.1.15,2013-03-06 14:29:00,
2013-03-06 08:34:00,31.5,20.7,30.41,NE,40,2.0,4.0,64,0.00,,,0.00,Wunderground v.1.15,2013-03-06 14:34:00,
2013-03-06 08:40:00,31.8,21.0,30.41,ENE,71,2.0,4.0,64,0.00,,,0.00,Wunderground v.1.15,2013-03-06 14:40:00,
2013-03-06 08:46:00,31.9,20.7,30.41,ENE,66,3.0,5.0,63,0.00,,,0.00,Wunderground v.1.15,2013-03-06 14:46:00,
2013-03-06 08:52:00,32.0,20.8,30.41,East,99,3.0,3.0,63,0.00,,,0.00,Wunderground v.1.15,2013-03-06 14:52:00,
2013-03-06 08:59:00,32.5,20.9,30.41,ENE,64,3.0,3.0,62,0.00,,,0.00,Wunderground v.1.15,2013-03-06 14:59:00,
2013-03-06 09:04:00,32.9,20.9,30.41,NNE,25,2.0,4.0,61,0.00,,,0.00,Wunderground v.1.15,2013-03-06 15:04:00,
2013-03-06 09:10:00,32.9,20.5,30.42,NNE,24,2.0,5.0,60,0.00,,,0.00,Wunderground v.1.15,2013-03-06 15:10:00,
2013-03-06 09:16:00,32.8,20.8,30.42,NNE,30,2.0,5.0,61,0.00,,,0.00,Wunderground v.1.15,2013-03-06 15:16:00,
2013-03-06 09:22:00,33.3,20.1,30.42,NE,43,2.0,2.0,58,0.00,,,0.00,Wunderground v.1.15,2013-03-06 15:22:00,
2013-03-06 09:29:00,34.4,21.1,30.43,East,88,1.0,3.0,58,0.00,,,0.00,Wunderground v.1.15,2013-03-06 15:29:00,
2013-03-06 09:34:00,35.0,20.4,30.43,NE,49,1.0,2.0,55,0.00,,,0.00,Wunderground v.1.15,2013-03-06 15:34:00,
2013-03-06 09:40:00,35.1,20.5,30.42,East,94,1.0,1.0,55,0.00,,,0.00,Wunderground v.1.15,2013-03-06 15:40:00,
2013-03-06 09:46:00,35.8,20.8,30.43,ENE,67,1.0,1.0,54,0.00,,,0.00,Wunderground v.1.15,2013-03-06 15:46:00,
2013-03-06 09:52:00,36.1,20.6,30.43,ENE,67,0.0,1.0,53,0.00,,,0.00,Wunderground v.1.15,2013-03-06 15:52:00,
2013-03-06 09:58:00,36.6,21.1,30.42,ENE,67,0.0,1.0,53,0.00,,,0.00,Wunderground v.1.15,2013-03-06 15:58:00,
2013-03-06 10:04:00,36.2,20.2,30.43,NW,304,1.0,4.0,52,0.00,,,0.00,Wunderground v.1.15,2013-03-06 16:04:00,
2013-03-06 10:10:00,36.1,20.6,30.43,NW,306,2.0,2.0,53,0.00,,,0.00,Wunderground v.1.15,2013-03-06 16:10:00,
2013-03-06 10:16:00,37.5,21.5,30.42,NW,307,0.0,2.0,52,0.00,,,0.00,Wunderground v.1.15,2013-03-06 16:16:00,
2013-03-06 10:22:00,38.1,21.1,30.43,NW,313,1.0,1.0,50,0.00,,,0.00,Wunderground v.1.15,2013-03-06 16:22:00,
2013-03-06 10:28:00,38.0,21.0,30.43,NW,311,1.0,3.0,50,0.00,,,0.00,Wunderground v.1.15,2013-03-06 16:28:00,
2013-03-06 10:34:00,38.2,20.7,30.43,NW,310,1.0,2.0,49,0.00,,,0.00,Wunderground v.1.15,2013-03-06 16:34:00,
2013-03-06 10:40:00,37.9,20.4,30.43,North,349,2.0,2.0,49,0.00,,,0.00,Wunderground v.1.15,2013-03-06 16:40:00,
2013-03-06 10:46:00,38.1,20.6,30.42,North,349,1.0,2.0,49,0.00,,,0.00,Wunderground v.1.15,2013-03-06 16:46:00,
2013-03-06 10:52:00,39.5,21.4,30.42,NE,48,1.0,2.0,48,0.00,,,0.00,Wunderground v.1.15,2013-03-06 16:52:00,
2013-03-06 10:59:00,40.5,21.3,30.42,NE,56,1.0,2.0,46,0.00,,,0.00,Wunderground v.1.15,2013-03-06 16:59:00,
2013-03-06 11:04:00,40.8,20.5,30.42,WNW,292,1.0,2.0,44,0.00,,,0.00,Wunderground v.1.15,2013-03-06 17:04:00,
2013-03-06 11:10:00,40.5,20.8,30.42,NNE,13,2.0,2.0,45,0.00,,,0.00,Wunderground v.1.15,2013-03-06 17:10:00,
2013-03-06 11:16:00,39.9,20.8,30.42,NNE,13,1.0,2.0,46,0.00,,,0.00,Wunderground v.1.15,2013-03-06 17:16:00,
2013-03-06 11:22:00,40.5,21.3,30.41,North,360,1.0,2.0,46,0.00,,,0.00,Wunderground v.1.15,2013-03-06 17:22:00,
2013-03-06 11:29:00,41.3,21.0,30.41,North,360,1.0,2.0,44,0.00,,,0.00,Wunderground v.1.15,2013-03-06 17:29:00,
2013-03-06 11:34:00,41.4,21.1,30.41,NNW,338,1.0,4.0,44,0.00,,,0.00,Wunderground v.1.15,2013-03-06 17:34:00,
2013-03-06 11:40:00,41.5,21.2,30.41,East,87,1.0,1.0,44,0.00,,,0.00,Wunderground v.1.15,2013-03-06 17:40:00,
2013-03-06 11:46:00,42.3,21.9,30.41,ENE,59,0.0,3.0,44,0.00,,,0.00,Wunderground v.1.15,2013-03-06 17:46:00,
2013-03-06 11:52:00,42.3,21.4,30.41,NNW,329,1.0,2.0,43,0.00,,,0.00,Wunderground v.1.15,2013-03-06 17:52:00,
2013-03-06 11:59:00,41.3,20.5,30.40,NNW,329,2.0,5.0,43,0.00,,,0.00,Wunderground v.1.15,2013-03-06 17:59:00,
2013-03-06 12:04:00,41.1,20.8,30.40,NNW,329,2.0,2.0,44,0.00,,,0.00,Wunderground v.1.15,2013-03-06 18:04:00,
2013-03-06 12:10:00,42.2,21.3,30.39,North,5,1.0,1.0,43,0.00,,,0.00,Wunderground v.1.15,2013-03-06 18:10:00,
2013-03-06 12:16:00,43.1,22.1,30.39,NNE,13,1.0,1.0,43,0.00,,,0.00,Wunderground v.1.15,2013-03-06 18:16:00,
2013-03-06 12:22:00,43.9,21.7,30.39,ENE,59,1.0,3.0,41,0.00,,,0.00,Wunderground v.1.15,2013-03-06 18:22:00,
2013-03-06 12:28:00,43.8,21.6,30.38,NE,45,2.0,4.0,41,0.00,,,0.00,Wunderground v.1.15,2013-03-06 18:28:00,
2013-03-06 12:34:00,44.2,22.0,30.38,NE,46,1.0,3.0,41,0.00,,,0.00,Wunderground v.1.15,2013-03-06 18:34:00,
2013-03-06 12:40:00,43.7,21.5,30.37,SE,146,1.0,1.0,41,0.00,,,0.00,Wunderground v.1.15,2013-03-06 18:40:00,
2013-03-06 12:46:00,44.8,22.5,30.37,SE,141,1.0,2.0,41,0.00,,,0.00,Wunderground v.1.15,2013-03-06 18:46:00,
2013-03-06 12:52:00,46.0,23.0,30.36,ESE,103,1.0,1.0,40,0.00,,,0.00,Wunderground v.1.15,2013-03-06 18:52:00,
2013-03-06 12:58:00,46.3,22.7,30.35,NE,39,2.0,5.0,39,0.00,,,0.00,Wunderground v.1.15,2013-03-06 18:58:00,
2013-03-06 13:04:00,46.1,22.5,30.35,NE,44,2.0,4.0,39,0.00,,,0.00,Wunderground v.1.15,2013-03-06 19:04:00,
2013-03-06 13:10:00,46.2,22.6,30.34,NNE,30,2.0,2.0,39,0.00,,,0.00,Wunderground v.1.15,2013-03-06 19:10:00,
2013-03-06 13:16:00,46.5,22.8,30.34,ENE,76,1.0,2.0,39,0.00,,,0.00,Wunderground v.1.15,2013-03-06 19:16:00,
2013-03-06 13:22:00,47.0,22.0,30.33,East,86,1.0,1.0,37,0.00,,,0.00,Wunderground v.1.15,2013-03-06 19:22:00,
2013-03-06 13:29:00,47.6,22.6,30.32,East,96,1.0,1.0,37,0.00,,,0.00,Wunderground v.1.15,2013-03-06 19:29:00,
2013-03-06 13:34:00,47.9,22.8,30.32,ENE,67,1.0,5.0,37,0.00,,,0.00,Wunderground v.1.15,2013-03-06 19:34:00,
2013-03-06 13:40:00,47.6,21.9,30.32,East,80,2.0,2.0,36,0.00,,,0.00,Wunderground v.1.15,2013-03-06 19:40:00,
2013-03-06 13:46:00,47.4,23.0,30.32,East,87,2.0,2.0,38,0.00,,,0.00,Wunderground v.1.15,2013-03-06 19:46:00,
2013-03-06 13:52:00,47.8,22.8,30.32,NNE,22,1.0,3.0,37,0.00,,,0.00,Wunderground v.1.15,2013-03-06 19:52:00,
2013-03-06 13:59:00,47.2,22.9,30.32,NNE,23,2.0,4.0,38,0.00,,,0.00,Wunderground v.1.15,2013-03-06 19:59:00,
2013-03-06 14:04:00,46.8,22.5,30.32,North,355,1.0,2.0,38,0.00,,,0.00,Wunderground v.1.15,2013-03-06 20:04:00,
2013-03-06 14:10:00,47.2,22.9,30.32,ESE,105,1.0,1.0,38,0.00,,,0.00,Wunderground v.1.15,2013-03-06 20:10:00,
2013-03-06 14:16:00,47.9,23.5,30.31,East,80,1.0,3.0,38,0.00,,,0.00,Wunderground v.1.15,2013-03-06 20:16:00,
2013-03-06 14:22:00,48.6,22.8,30.31,NE,46,1.0,3.0,36,0.00,,,0.00,Wunderground v.1.15,2013-03-06 20:22:00,
2013-03-06 14:29:00,47.4,22.4,30.31,North,360,2.0,3.0,37,0.00,,,0.00,Wunderground v.1.15,2013-03-06 20:29:00,
2013-03-06 14:34:00,47.4,23.0,30.31,North,360,1.0,3.0,38,0.00,,,0.00,Wunderground v.1.15,2013-03-06 20:34:00,
2013-03-06 14:40:00,47.5,22.5,30.31,North,360,1.0,1.0,37,0.00,,,0.00,Wunderground v.1.15,2013-03-06 20:40:00,
2013-03-06 14:46:00,48.0,22.3,30.31,North,360,0.0,1.0,36,0.00,,,0.00,Wunderground v.1.15,2013-03-06 20:46:00,
2013-03-06 14:52:00,48.0,22.3,30.31,NNW,335,1.0,4.0,36,0.00,,,0.00,Wunderground v.1.15,2013-03-06 20:52:00,
2013-03-06 14:59:00,47.8,22.1,30.30,NNW,335,2.0,4.0,36,0.00,,,0.00,Wunderground v.1.15,2013-03-06 20:59:00,
2013-03-06 15:04:00,48.3,22.5,30.30,North,349,1.0,2.0,36,0.00,,,0.00,Wunderground v.1.15,2013-03-06 21:04:00,
2013-03-06 15:10:00,48.4,22.0,30.30,North,350,0.0,0.0,35,0.00,,,0.00,Wunderground v.1.15,2013-03-06 21:10:00,
2013-03-06 15:16:00,48.5,22.7,30.29,North,349,0.0,0.0,36,0.00,,,0.00,Wunderground v.1.15,2013-03-06 21:16:00,
2013-03-06 15:22:00,49.0,23.2,30.30,North,350,0.0,0.0,36,0.00,,,0.00,Wunderground v.1.15,2013-03-06 21:22:00,
2013-03-06 15:29:00,49.7,23.1,30.29,North,350,0.0,2.0,35,0.00,,,0.00,Wunderground v.1.15,2013-03-06 21:29:00,
2013-03-06 15:34:00,50.4,23.1,30.29,North,360,1.0,2.0,34,0.00,,,0.00,Wunderground v.1.15,2013-03-06 21:34:00,
2013-03-06 15:40:00,50.6,23.2,30.30,North,5,1.0,1.0,34,0.00,,,0.00,Wunderground v.1.15,2013-03-06 21:40:00,
2013-03-06 15:46:00,50.5,22.4,30.28,North,9,1.0,2.0,33,0.00,,,0.00,Wunderground v.1.15,2013-03-06 21:46:00,
2013-03-06 15:52:00,50.5,23.1,30.28,North,9,1.0,2.0,34,0.00,,,0.00,Wunderground v.1.15,2013-03-06 21:52:00,
2013-03-06 15:59:00,50.7,22.6,30.28,North,360,1.0,2.0,33,0.00,,,0.00,Wunderground v.1.15,2013-03-06 21:59:00,
2013-03-06 16:04:00,49.8,21.8,30.27,SE,130,1.0,3.0,33,0.00,,,0.00,Wunderground v.1.15,2013-03-06 22:04:00,
2013-03-06 16:10:00,49.4,22.2,30.27,ESE,117,1.0,1.0,34,0.00,,,0.00,Wunderground v.1.15,2013-03-06 22:10:00,
2013-03-06 16:16:00,49.3,22.1,30.27,ESE,117,1.0,1.0,34,0.00,,,0.00,Wunderground v.1.15,2013-03-06 22:16:00,
2013-03-06 16:22:00,49.2,22.0,30.26,ESE,117,0.0,0.0,34,0.00,,,0.00,Wunderground v.1.15,2013-03-06 22:22:00,
2013-03-06 16:29:00,49.7,21.7,30.26,ESE,117,0.0,2.0,33,0.00,,,0.00,Wunderground v.1.15,2013-03-06 22:29:00,
2013-03-06 16:34:00,49.9,21.9,30.26,ESE,113,1.0,1.0,33,0.00,,,0.00,Wunderground v.1.15,2013-03-06 22:34:00,
2013-03-06 16:40:00,49.9,21.2,30.25,ESE,113,1.0,1.0,32,0.00,,,0.00,Wunderground v.1.15,2013-03-06 22:40:00,
2013-03-06 16:46:00,50.1,20.6,30.25,East,96,1.0,2.0,31,0.00,,,0.00,Wunderground v.1.15,2013-03-06 22:46:00,
2013-03-06 16:52:00,50.1,20.6,30.25,East,96,1.0,2.0,31,0.00,,,0.00,Wunderground v.1.15,2013-03-06 22:52:00,
2013-03-06 16:59:00,49.7,20.2,30.25,East,81,2.0,2.0,31,0.00,,,0.00,Wunderground v.1.15,2013-03-06 22:59:00,
2013-03-06 17:04:00,49.7,21.0,30.24,ENE,68,1.0,2.0,32,0.00,,,0.00,Wunderground v.1.15,2013-03-06 23:04:00,
2013-03-06 17:10:00,49.7,21.0,30.24,ESE,117,1.0,3.0,32,0.00,,,0.00,Wunderground v.1.15,2013-03-06 23:10:00,
2013-03-06 17:16:00,49.5,20.8,30.24,SE,125,1.0,3.0,32,0.00,,,0.00,Wunderground v.1.15,2013-03-06 23:16:00,
2013-03-06 17:22:00,49.0,20.4,30.24,SE,139,1.0,1.0,32,0.00,,,0.00,Wunderground v.1.15,2013-03-06 23:22:00,
2013-03-06 17:29:00,48.8,20.2,30.23,ESE,116,0.0,1.0,32,0.00,,,0.00,Wunderground v.1.15,2013-03-06 23:29:00,
2013-03-06 17:34:00,48.8,20.2,30.23,ESE,116,0.0,0.0,32,0.00,,,0.00,Wunderground v.1.15,2013-03-06 23:34:00,
2013-03-06 17:40:00,48.6,20.0,30.23,ESE,116,0.0,0.0,32,0.00,,,0.00,Wunderground v.1.15,2013-03-06 23:40:00,
2013-03-06 17:46:00,48.4,20.6,30.23,ESE,116,0.0,0.0,33,0.00,,,0.00,Wunderground v.1.15,2013-03-06 23:46:00,
2013-03-06 17:52:00,48.3,19.8,30.23,ESE,116,0.0,1.0,32,0.00,,,0.00,Wunderground v.1.15,2013-03-06 23:52:00,
2013-03-06 17:59:00,48.1,20.3,30.23,ESE,116,0.0,1.0,33,0.00,,,0.00,Wunderground v.1.15,2013-03-06 23:59:00,
2013-03-06 18:04:00,48.0,20.9,30.23,ESE,115,0.0,2.0,34,0.00,,,0.00,Wunderground v.1.15,2013-03-07 00:04:00,
2013-03-06 18:10:00,47.8,20.8,30.23,ESE,116,0.0,0.0,34,0.00,,,0.00,Wunderground v.1.15,2013-03-07 00:10:00,
2013-03-06 18:16:00,47.6,21.3,30.23,ESE,115,0.0,1.0,35,0.00,,,0.00,Wunderground v.1.15,2013-03-07 00:16:00,
2013-03-06 18:22:00,47.4,21.1,30.23,ESE,116,0.0,2.0,35,0.00,,,0.00,Wunderground v.1.15,2013-03-07 00:22:00,
2013-03-06 18:29:00,47.3,21.7,30.23,ESE,115,0.0,2.0,36,0.00,,,0.00,Wunderground v.1.15,2013-03-07 00:29:00,
2013-03-06 18:34:00,47.2,21.6,30.23,ESE,116,0.0,2.0,36,0.00,,,0.00,Wunderground v.1.15,2013-03-07 00:34:00,
2013-03-06 18:40:00,47.1,21.5,30.23,ESE,116,0.0,0.0,36,0.00,,,0.00,Wunderground v.1.15,2013-03-07 00:40:00,
2013-03-06 18:46:00,46.9,21.3,30.23,ESE,116,0.0,3.0,36,0.00,,,0.00,Wunderground v.1.15,2013-03-07 00:46:00,
2013-03-06 18:52:00,46.8,21.2,30.22,ESE,116,0.0,0.0,36,0.00,,,0.00,Wunderground v.1.15,2013-03-07 00:52:00,
2013-03-06 18:58:00,46.6,21.0,30.22,ESE,116,0.0,0.0,36,0.00,,,0.00,Wunderground v.1.15,2013-03-07 00:58:00,
2013-03-06 19:05:00,46.5,21.6,30.22,ESE,116,0.0,1.0,37,0.00,,,0.00,Wunderground v.1.15,2013-03-07 01:05:00,
2013-03-06 19:10:00,46.4,21.5,30.22,ESE,116,0.0,0.0,37,0.00,,,0.00,Wunderground v.1.15,2013-03-07 01:10:00,
2013-03-06 19:16:00,46.3,21.4,30.22,ESE,116,0.0,0.0,37,0.00,,,0.00,Wunderground v.1.15,2013-03-07 01:16:00,
2013-03-06 19:22:00,46.1,21.2,30.21,ESE,114,0.0,1.0,37,0.00,,,0.00,Wunderground v.1.15,2013-03-07 01:22:00,
2013-03-06 19:29:00,46.1,21.2,30.21,ESE,114,1.0,1.0,37,0.00,,,0.00,Wunderground v.1.15,2013-03-07 01:29:00,
2013-03-06 19:34:00,46.1,21.9,30.21,ESE,114,1.0,2.0,38,0.00,,,0.00,Wunderground v.1.15,2013-03-07 01:34:00,
2013-03-06 19:40:00,46.0,22.4,30.21,ESE,122,2.0,2.0,39,0.00,,,0.00,Wunderground v.1.15,2013-03-07 01:40:00,
2013-03-06 19:46:00,45.9,22.9,30.21,SE,131,3.0,3.0,40,0.00,,,0.00,Wunderground v.1.15,2013-03-07 01:46:00,
2013-03-06 19:52:00,45.8,23.4,30.21,SE,139,2.0,3.0,41,0.00,,,0.00,Wunderground v.1.15,2013-03-07 01:52:00,
2013-03-06 19:59:00,45.7,23.9,30.21,SE,126,2.0,5.0,42,0.00,,,0.00,Wunderground v.1.15,2013-03-07 01:59:00,
2013-03-06 20:04:00,45.6,23.8,30.21,SE,133,2.0,5.0,42,0.00,,,0.00,Wunderground v.1.15,2013-03-07 02:04:00,
2013-03-06 20:10:00,45.5,23.7,30.21,ESE,123,3.0,4.0,42,0.00,,,0.00,Wunderground v.1.15,2013-03-07 02:10:00,
2013-03-06 20:16:00,45.4,23.6,30.21,ESE,123,2.0,4.0,42,0.00,,,0.00,Wunderground v.1.15,2013-03-07 02:16:00,
2013-03-06 20:22:00,45.3,23.5,30.21,ESE,123,1.0,2.0,42,0.00,,,0.00,Wunderground v.1.15,2013-03-07 02:22:00,
2013-03-06 20:29:00,45.1,23.9,30.21,SE,128,2.0,3.0,43,0.00,,,0.00,Wunderground v.1.15,2013-03-07 02:29:00,
2013-03-06 20:34:00,45.0,23.8,30.21,SE,129,2.0,3.0,43,0.00,,,0.00,Wunderground v.1.15,2013-03-07 02:34:00,
2013-03-06 20:40:00,45.0,23.8,30.21,SE,128,2.0,2.0,43,0.00,,,0.00,Wunderground v.1.15,2013-03-07 02:40:00,
2013-03-06 20:46:00,45.0,23.8,30.22,SE,128,1.0,2.0,43,0.00,,,0.00,Wunderground v.1.15,2013-03-07 02:46:00,
2013-03-06 20:52:00,45.0,24.4,30.21,SE,130,1.0,3.0,44,0.00,,,0.00,Wunderground v.1.15,2013-03-07 02:52:00,
2013-03-06 21:10:00,44.9,24.3,30.21,SE,142,1.0,2.0,44,0.00,,,0.00,Wunderground v.1.15,2013-03-07 03:10:00,
2013-03-06 21:16:00,44.8,24.2,30.21,SE,142,1.0,2.0,44,0.00,,,0.00,Wunderground v.1.15,2013-03-07 03:16:00,
2013-03-06 21:22:00,44.7,24.6,30.21,SE,142,0.0,1.0,45,0.00,,,0.00,Wunderground v.1.15,2013-03-07 03:22:00,
2013-03-06 21:29:00,44.6,24.5,30.21,SE,144,1.0,6.0,45,0.00,,,0.00,Wunderground v.1.15,2013-03-07 03:29:00,
2013-03-06 21:34:00,44.5,24.5,30.21,SE,142,1.0,3.0,45,0.00,,,0.00,Wunderground v.1.15,2013-03-07 03:34:00,
2013-03-06 21:40:00,44.4,24.4,30.21,SE,141,1.0,1.0,45,0.00,,,0.00,Wunderground v.1.15,2013-03-07 03:40:00,
2013-03-06 21:46:00,44.3,24.3,30.21,SE,138,1.0,1.0,45,0.00,,,0.00,Wunderground v.1.15,2013-03-07 03:46:00,
2013-03-06 21:52:00,44.2,24.2,30.22,SE,139,0.0,1.0,45,0.00,,,0.00,Wunderground v.1.15,2013-03-07 03:52:00,
2013-03-06 21:59:00,44.1,24.1,30.21,SE,137,1.0,2.0,45,0.00,,,0.00,Wunderground v.1.15,2013-03-07 03:59:00,
2013-03-06 22:04:00,44.0,24.0,30.22,SE,137,1.0,1.0,45,0.00,,,0.00,Wunderground v.1.15,2013-03-07 04:04:00,
2013-03-06 22:10:00,44.0,24.0,30.21,SE,126,1.0,1.0,45,0.00,,,0.00,Wunderground v.1.15,2013-03-07 04:10:00,
2013-03-06 22:16:00,43.9,23.9,30.21,SE,127,1.0,1.0,45,0.00,,,0.00,Wunderground v.1.15,2013-03-07 04:16:00,
2013-03-06 22:22:00,43.8,24.3,30.21,SE,126,0.0,1.0,46,0.00,,,0.00,Wunderground v.1.15,2013-03-07 04:22:00,
2013-03-06 22:29:00,43.7,24.2,30.21,ESE,121,1.0,2.0,46,0.00,,,0.00,Wunderground v.1.15,2013-03-07 04:29:00,
2013-03-06 22:34:00,43.6,24.7,30.20,ESE,111,1.0,2.0,47,0.00,,,0.00,Wunderground v.1.15,2013-03-07 04:34:00,
2013-03-06 22:40:00,43.4,24.5,30.20,ESE,110,1.0,1.0,47,0.00,,,0.00,Wunderground v.1.15,2013-03-07 04:40:00,
2013-03-06 22:46:00,43.2,24.8,30.20,ESE,109,1.0,4.0,48,0.00,,,0.00,Wunderground v.1.15,2013-03-07 04:46:00,
2013-03-06 22:52:00,43.1,24.7,30.20,ESE,107,1.0,1.0,48,0.00,,,0.00,Wunderground v.1.15,2013-03-07 04:52:00,
2013-03-06 22:59:00,43.0,24.6,30.20,ESE,103,1.0,4.0,48,0.00,,,0.00,Wunderground v.1.15,2013-03-07 04:59:00,
2013-03-06 23:00:00,43.0,25.1,30.20,East,101,1.0,1.0,49,0.00,,,0.00,Wunderground v.1.15,2013-03-07 05:00:00,
2013-03-06 23:02:00,43.0,25.1,30.20,East,98,2.0,2.0,49,0.00,,,0.00,Wunderground v.1.15,2013-03-07 05:02:00,
2013-03-06 23:09:00,42.8,24.9,30.19,ESE,117,2.0,2.0,49,0.00,,,0.00,Wunderground v.1.15,2013-03-07 05:09:00,
2013-03-06 23:14:00,42.7,24.8,30.19,ESE,113,2.0,2.0,49,0.00,,,0.00,Wunderground v.1.15,2013-03-07 05:14:00,
2013-03-06 23:20:00,42.6,25.2,30.19,ESE,103,2.0,2.0,50,0.00,,,0.00,Wunderground v.1.15,2013-03-07 05:20:00,
2013-03-06 23:26:00,42.5,25.1,30.19,ESE,103,1.0,4.0,50,0.00,,,0.00,Wunderground v.1.15,2013-03-07 05:26:00,
2013-03-06 23:30:00,42.4,25.1,30.18,SE,136,1.0,2.0,50,0.00,,,0.00,Wunderground v.1.15,2013-03-07 05:30:00,
2013-03-06 23:36:00,42.4,24.6,30.18,ESE,123,2.0,2.0,49,0.00,,,0.00,Wunderground v.1.15,2013-03-07 05:36:00,
2013-03-06 23:42:00,42.4,24.6,30.18,ESE,105,2.0,2.0,49,0.00,,,0.00,Wunderground v.1.15,2013-03-07 05:42:00,
2013-03-06 23:49:00,42.4,25.1,30.18,ESE,111,1.0,3.0,50,0.00,,,0.00,Wunderground v.1.15,2013-03-07 05:49:00,
2013-03-06 23:54:00,42.2,24.9,30.18,ESE,111,1.0,2.0,50,0.00,,,0.00,Wunderground v.1.15,2013-03-07 05:54:00,